User: anonymous   Login
Location: Indian Hills
(32.9760°N, 85.9450°W)
Time: 12:46:21
(UTC+00:00)
Language:

Meteor 1-19 Rocket - Orbit

View from above orbital plane
View from above orbital plane
View from above satellite
View from above satellite

Ground track
Ground track

The orbit data is extracted from the following two-line orbital elements,

1  7493U 74083B   20053.01410895  .00000033  00000-0  12259-4 0  9992
2  7493  81.1645 282.3136 0071838 232.0362 127.4303 14.07597163326655
Epoch (UTC): 22 February 2020 00:20:19
Eccentricity: 0.0071838
inclination: 81.1645°
perigee height: 815 km
apogee height: 919 km
right ascension of ascending node: 282.3136°
argument of perigee: 232.0362°
revolutions per day: 14.07597163
mean anomaly at epoch: 127.4303°
orbit number at epoch: 32665

The dashed part of the orbit path shows where the satellite is in the earth's shadow,  

DLR